Showing default

YUNYAO-1 48, 63349

Orbit data source: Space-Track

YUNYAO-1 48, 63349 is a payload satellite owned by Yunyao yuhang (CN) in SSO that was launched on Fri, 21 Mar 2025 UTC via a GUSHENXING 1 launch vehicle from the Jiuquan Satellite Launch Center, China (JSC). Payload-class satellites include a variety of spacecraft equipped with specific instruments for various scientific and technological missions. These include communications satellites like Starlink; space stations such as the ISS; scientific satellites like the Hubble; Earth observation satellites from companies like Planet Labs, Umbra, and HawkEye 360; GPS; miniature CubeSats for education and research; and military/defense satellites.

Loading next visibility...
Identifier
63349, 2025-059F
Orbit
SSO
Country
Flag of CNCN / PRC
Related business
Manufacturer
Changguang WJ
Mission
Operational spacecraft
Bus & Motor
YY-1, Unknown motor
Mass
~50 kg wet, ~50 kg dry
Launch date (UTC)
2025-03-21 (6 months ago)
Launch vehicle
GUSHENXING 1
Launch site
Jiuquan Satellite Launch Center, China (JSC)
Object type
Payload
Rocket body
Debris
Shape & HBR
Unknown
Radar Cross Section
Medium (>0.1 m² and <1 m²)

Expand to show TLE details & history
Last TLE update: 8 hours ago

TLE from 8 hours ago
0 YUNYAO-1 48
1 63349U 25059F   25260.93742706  .00002790  00000-0  18180-3 0  9998
2 63349  97.6035  79.3951 0016621  17.8223 342.3585 15.08642360 27217
Epoch: 2025-09-17T22:29Z
TLE epoch observation values (Epoch: 2025-09-17T22:29:53.698Z)
Latitude
0.00002°
Longitude
104.81515°
Altitude
532.458 km
Speed
7.603 km/s
True Right ascension
05h 17m 34s
True Declination
0° 00' 00"
Sunlit
Object was in daylight at epoch
Visualization orbit readout
Latitude
Unknown
Longitude
Unknown
Altitude
Unknown
Speed
Unknown
Apparent Right ascension
Unknown
Apparent Declination
Unknown
Sunlit
N/A
Visualization observer readout
Local Sidereal Time
23:24:00
Azimuth
Unknown
Elevation
Unknown
Doppler factor
Unknown
Orbital elements
Apogee altitude
548.831 km
Perigee altitude
525.843 km
Semi-major axis
6,915.474 km
Eccentricity
0.00166
Inclination
97.6035°
RAAN
79.3951°
Arg. of periapsis
17.8223°
True anomaly
342.30066°
Mean anomaly
342.3585°
Eccentric anomaly
342.32959°
Mean motion
3.77407 °/min
Orbital period
95.39 mins
BSTAR
0.0001818
Loading maneuver chart data...
Computing Atmospheric mass density...
Loading historical data...
Loading historical data...
Loading historical data...
Loading historical data...
Loading historical data...
Loading historical data...
Loading historical data...
Other satellites on launch #59 in the year 2025 (2025-03-21 UTC)

Documentation

Showing up to 5 results
|